Overview Statistics Trail Chart Weather Telemetry Raw packets
 

This is the latest recevied weather packets stored in our database for station/object DG6YGE-6. If no packets are shown the sender has not sent any weather packets the latest 10 day(s).

<< 2 3 4 5 6 7 8 >>
Time Temp. Humidity Pressure Rain* Wind** Luminosity Snow
1788608351 17.78° C 76% 1017.5 hPa 0 mm - 44 W/m² -
1788607752 18.33° C 72% 1017.1 hPa 0 mm - 43 W/m² -
1788607151 18.33° C 72% 1017.1 hPa 0 mm - 105 W/m² -
1788606551 18.89° C 69% 1017 hPa 0 mm - 78 W/m² -
1788605952 19.44° C 70% 1016.8 hPa 0 mm - 263 W/m² -
1788605351 19.44° C 70% 1016.7 hPa 0 mm - 698 W/m² -
1788604751 18.89° C 71% 1016.7 hPa 0 mm - 420 W/m² -
1788604151 18.89° C 72% 1016.6 hPa 0 mm - 658 W/m² -
1788603552 18.33° C 73% 1016.6 hPa 0 mm - 669 W/m² -
1788602951 18.33° C 73% 1016.8 hPa 0 mm - 116 W/m² -
1788602351 17.78° C 75% 1016.7 hPa 0 mm - 400 W/m² -
1788601751 18.33° C 73% 1016.6 hPa 0 mm - 113 W/m² -
1788601151 18.33° C 72% 1016.5 hPa 0 mm - 200 W/m² -
1788600551 18.33° C 74% 1016.6 hPa 0 mm - 288 W/m² -
1788599951 18.33° C 74% 1016.5 hPa 0 mm - 714 W/m² -
1788599351 18.33° C 75% 1016.6 hPa 0 mm - 367 W/m² -
1788598751 17.78° C 77% 1016.6 hPa 0 mm - 656 W/m² -
1788598151 17.78° C 76% 1016.4 hPa 0 mm - 438 W/m² -
1788597551 17.78° C 78% 1016.4 hPa 0 mm - 297 W/m² -
1788596951 17.78° C 79% 1016.3 hPa 0 mm - 477 W/m² -
1788596351 17.22° C 80% 1016.3 hPa 0 mm - 467 W/m² -
1788595751 17.22° C 80% 1016 hPa 0 mm - 431 W/m² -
1788595151 17.22° C 80% 1015.9 hPa 0 mm - 375 W/m² -
1788594551 16.67° C 81% 1016 hPa 0 mm - 353 W/m² -
1788593951 16.67° C 81% 1015.8 hPa 0 mm - 327 W/m² -

* Rain latest hour (hover to see other rain measurements)
** Current wind speed in m/s (hover to see current wind gust speed)